This demonstration page uses our WeatherBlox Daily Observations layout. Learn more.

Left ArrowRight Arrow

Hourly Observations for January 6, 2016

Temp ( °F °C ) Dew Point ( °F °C ) Humidity (%) Winds ( mph kmh ) Pressure ( in mb ) Visibility ( mi km ) Precip ( " mm )
12:59 am 00:59 Mostly Clear 31 -0.6 22 -5.6 69 69 N 10 17 30.60 1036 10 16 0.00 0.00
1:59 am 01:59 Clear 33 0.6 25 -3.9 72 72 N 9 15 30.59 1036 10 16 0.00 0.00
2:59 am 02:59 Clear 33 0.6 25 -3.9 72 72 NNE 9 15 30.59 1036 10 16 0.00 0.00
3:59 am 03:59 Clear 34 1.1 26 -3.3 73 73 NE 9 15 30.58 1035 10 16 0.00 0.00
4:59 am 04:59 Clear 34 1.1 27 -2.8 76 76 NE 10 17 30.57 1035 10 16 0.00 0.00
5:59 am 05:59 Clear 35 1.7 26 -3.3 70 70 NE 9 15 30.57 1035 10 16 0.00 0.00
6:59 am 06:59 Clear 35 1.7 27 -2.8 72 72 NE 12 19 30.59 1036 10 16 0.00 0.00
7:59 am 07:59 Mostly Sunny 36 2.2 28 -2.2 73 73 NNE 10 17 30.60 1036 9 14 0.00 0.00
8:59 am 08:59 Partly Cloudy 40 4.4 30 -1.1 68 68 NE 12 19 30.60 1036 10 16 0.00 0.00
9:59 am 09:59 Partly Cloudy 42 5.6 31 -0.6 65 65 NE 12 19 30.60 1036 10 16 0.00 0.00
10:59 am 10:59 Partly Cloudy 44 6.7 33 0.6 65 65 NE 13 20 30.58 1035 10 16 0.00 0.00
11:59 am 11:59 Partly Cloudy 46 7.8 34 1.1 63 63 NE 9 15 30.55 1035 10 16 0.00 0.00
12:59 pm 12:59 Mostly Cloudy 45 7.2 34 1.1 66 66 ENE 12 19 30.52 1033 9 14 0.00 0.00
1:59 pm 13:59 Mostly Cloudy 46 7.8 35 1.7 66 66 NE 10 17 30.48 1032 10 16 0.00 0.00
2:59 pm 14:59 Mostly Cloudy 45 7.2 34 1.1 66 66 NNE 10 17 30.47 1032 10 16 0.00 0.00
3:59 pm 15:59 Partly Cloudy 45 7.2 34 1.1 66 66 NNE 10 17 30.47 1032 10 16 0.00 0.00
4:59 pm 16:59 Mostly Cloudy 44 6.7 34 1.1 68 68 ENE 8 13 30.47 1032 10 16 0.00 0.00
5:51 pm 17:51 Mostly Cloudy 43 6.1 34 1.1 71 71 ENE 7 11 30.45 1031 10 16 0.00 0.00
5:59 pm 17:59 Cloudy 43 6.1 33 0.6 68 68 ENE 9 15 30.45 1031 10 16 0.00 0.00
6:59 pm 18:59 Partly Cloudy 42 5.6 33 0.6 71 71 NE 7 11 30.45 1031 10 16 0.00 0.00
7:59 pm 19:59 Mostly Cloudy 42 5.6 34 1.1 73 73 NE 9 15 30.45 1031 10 16 0.00 0.00
8:59 pm 20:59 Cloudy 43 6.1 34 1.1 71 71 NE 8 13 30.44 1031 10 16 0.00 0.00
9:59 pm 21:59 Cloudy 44 6.7 34 1.1 68 68 NE 8 13 30.43 1030 10 16 0.00 0.00
10:59 pm 22:59 Cloudy 44 6.7 35 1.7 71 71 NE 9 15 30.41 1030 10 16 0.00 0.00
11:59 pm 23:59 Mostly Cloudy 44 6.7 36 2.2 73 73 NE 8 13 30.38 1029 10 16 0.00 0.00

Powered by AerisWeather